If you wish to contribute or participate in the discussions about articles you are invited to join SKYbrary as a registered user

 Actions

Itaituba Airport

From SKYbrary Wiki

SBIH
Airport
ICAO: SBIH – IATA: ITB
Summary
Name Itaituba Airport
Region South America and Caribbean
Territory Brazil BR.gif
Location Itaituba, Para
Serving Itaituba
Elevation 32.918 m
108 ft32.918 m
Coordinates 4° 14' 31.99" S, 56° 0' 2.99" W
Runways
Designator Length Width Surface ROPS
5/23 1605 m5,265.748 ft
30 m98.425 ft
ASP /


METAR
Observation SBIH 271300Z 00000KT 9999 FEW015 30/25 Q1013
Station Itaituba
Date/Time 27 May 2019 13:00:00
Wind direction
Wind speed 00 kts
Lowest cloud amount few clouds
Temperature 30°C
Dew point 25°C
Humidity 74%
QNH 1013 hPa
Weather condition n/a

Itaituba Airport is the airport serving Itaituba, Brazil.

Climatology

Tropical monsoon climate (Köppen climate classification Am)

Maps

Terrain

Loading map...

Airport Layout

Loading map...


Accidents & Serious Incidents at or in vicinity of SBIH

None on SKYbrary